ROMMA est une association bénévole à but non lucratif. Votre soutien est indispensable : ADHERER à ROMMA ou FAIRE un DON

Leysin - (CH, Vaud)

Alpes Bernoises (1360 m)   Longitude: 07° 01' 30" E   Latitude: 46° 21' 16" N Station partenaire n°1
 

Détail journalier du     <<     >>

Température Precipitation Humidité Vent Dir Rafale Dir. rafale Ensol.
Heure (°C) (mm) (%) (km/h) (km/h) (min)
01:00 2.80683ONO16SO0
02:00 2.80632---11ONO0
03:00 3.30571SSO11SSO0
04:00 4.20515SO26OSO0
05:00 5.204412OSO37OSO0
06:00 5.704513OSO29OSO0
07:00 5.205914SO34SO0
08:00 5.605811OSO31SO0
09:00 5.005813OSO34SO0
10:00 5.50629OSO32OSO0
11:00 7.40536OSO21O20
12:00 6.70538SO40OSO20
13:00 5.306415SO45OSO0
14:00 4.307318SO50SO0
15:00 3.308115SSO42OSO0
16:00 3.00858SO32SSO0
17:00 1.719200---0
18:00 0.12.39400---0
19:00 -0.719200---0
20:00 -1.20.3872---19SSE0
21:00 -1.509110SSO37SO0
22:00 -1.90.59312S27SSO0
23:00 -1.90.39510S23S0
minuit -1.90.39515S32S0

Graphique du 10-02-2019

 

Serveur OMMA